AB1AU Weather Reports


Display with metric or nautical units.
time (UTC)temp
F
wind
direction
speed
MPH
gust
MPH
rain 1hr
in
rain 24hr
in
rain mn
in
humidity
%
barometer
mb
20260504221923 64 243 0.0 3.0 0.00 0.02 0.02 46 1006.2
20260504221419 65 338 2.0 3.0 0.00 0.02 0.02 45 1006.1
20260504220916 64 268 0.0 1.0 0.00 0.02 0.02 47 1006.1
20260504220413 64 269 2.0 3.0 0.00 0.02 0.02 46 1006.0
20260504215910 65 231 0.0 4.0 0.00 0.02 0.02 46 1006.1
20260504215407 65 281 1.0 3.0 0.00 0.02 0.02 45 1006.1
20260504214903 65 283 0.0 1.0 0.00 0.02 0.02 47 1006.2
20260504214359 65 269 0.0 2.0 0.00 0.02 0.02 46 1006.2
20260504213856 65 247 0.0 0.0 0.00 0.02 0.02 47 1006.2
20260504213352 65 237 1.0 3.0 0.00 0.02 0.02 46 1006.2
20260504212850 64 294 1.0 3.0 0.00 0.02 0.02 48 1006.3
20260504212346 63 287 1.0 3.0 0.00 0.02 0.02 49 1006.5
20260504211844 63 250 0.0 1.0 0.00 0.02 0.02 49 1006.2
20260504211339 64 274 3.0 4.0 0.00 0.02 0.02 47 1006.2
20260504210837 65 205 1.0 6.0 0.00 0.02 0.02 47 1006.3
20260504210334 65 214 0.0 2.0 0.00 0.02 0.02 47 1006.3
20260504205831 65 229 3.0 8.0 0.00 0.02 0.02 47 1006.1
20260504205329 65 235 1.0 2.0 0.00 0.02 0.02 47 1006.1
20260504204827 65 268 0.0 2.0 0.00 0.02 0.02 48 1006.0
20260504204325 66 165 2.0 4.0 0.00 0.02 0.02 48 1005.8
20260504203824 64 277 0.0 2.0 0.00 0.02 0.02 49 1006.0
20260504203321 64 207 4.0 7.0 0.00 0.02 0.02 48 1006.1
20260504202816 64 231 0.0 4.0 0.00 0.02 0.02 50 1006.1
20260504202314 64 179 2.0 3.0 0.00 0.02 0.02 49 1005.9
20260504201810 63 217 3.0 8.0 0.00 0.02 0.02 50 1006.1
20260504201308 63 245 2.0 4.0 0.00 0.02 0.02 50 1006.1
20260504200805 64 235 1.0 6.0 0.00 0.02 0.02 50 1006.0
20260504200301 64 246 2.0 2.0 0.00 0.02 0.02 49 1005.9
20260504195757 62 333 1.0 3.0 0.00 0.02 0.02 52 1005.7
20260504195253 62 213 6.0 8.0 0.00 0.02 0.02 51 1005.7
20260504194750 62 173 3.0 4.0 0.00 0.02 0.02 52 1005.8
20260504194247 62 267 1.0 9.0 0.00 0.02 0.02 53 1006.0
20260504193743 61 292 1.0 3.0 0.00 0.02 0.02 55 1006.0
20260504193240 61 210 9.0 9.0 0.00 0.02 0.02 54 1006.2
20260504192739 61 280 4.0 7.0 0.00 0.02 0.02 54 1006.1
20260504192237 61 205 2.0 10.0 0.00 0.02 0.02 54 1006.2
20260504191735 62 249 0.0 0.0 0.00 0.02 0.02 54 1006.1
20260504191231 62 285 4.0 6.0 0.00 0.02 0.02 54 1006.1
20260504190727 61 296 0.0 3.0 0.00 0.02 0.02 59 1006.0
20260504190224 60 172 4.0 6.0 0.00 0.02 0.02 59 1006.4
20260504185720 60 215 6.0 8.0 0.00 0.02 0.02 60 1006.4
20260504185217 60 248 3.0 4.0 0.00 0.02 0.02 59 1006.3
20260504184713 60 165 1.0 6.0 0.00 0.02 0.02 63 1006.4
20260504184209 60 258 3.0 6.0 0.00 0.02 0.02 66 1006.5
20260504183705 59 261 2.0 6.0 0.00 0.02 0.02 66 1006.6
20260504183202 58 224 3.0 4.0 0.00 0.02 0.02 69 1006.7
20260504182700 57 267 0.0 2.0 0.00 0.02 0.02 70 1006.7
20260504182157 56 276 2.0 4.0 0.00 0.02 0.02 72 1006.7
20260504181655 56 200 1.0 3.0 0.00 0.02 0.02 73 1006.7
20260504181152 56 282 1.0 3.0 0.00 0.02 0.02 71 1006.6
20260504180651 55 307 1.0 3.0 0.00 0.02 0.02 71 1006.6
20260504180149 56 282 0.0 2.0 0.00 0.02 0.02 72 1006.7
20260504175646 56 282 1.0 2.0 0.00 0.02 0.02 74 1006.9
20260504175143 55 244 1.0 7.0 0.00 0.02 0.02 76 1006.8
20260504174641 54 273 1.0 2.0 0.00 0.02 0.02 79 1006.8
20260504174137 53 287 0.0 1.0 0.00 0.02 0.02 78 1006.8
20260504173635 53 282 0.0 0.0 0.00 0.02 0.02 78 1007.0
20260504173132 53 237 1.0 2.0 0.07 0.02 0.02 77 1006.9
20260504172628 53 253 0.0 0.0 0.07 0.02 0.02 77 1006.9
20260504172125 54 252 0.0 0.0 0.00 0.01 0.01 76 1007.0
20260504171621 54 225 0.0 1.0 0.00 0.01 0.01 76 1007.1
20260504171119 54 252 1.0 2.0 0.00 0.01 0.01 75 1007.0
20260504170615 54 269 0.0 3.0 0.00 0.01 0.01 74 1006.9
20260504170113 54 270 0.0 1.0 0.00 0.01 0.01 74 1006.9
20260504150958 55 225 4.0 7.0 0.00 0.00 0.00 53 1006.5
20260504150455 55 160 3.0 7.0 0.00 0.00 0.00 54 1006.6
20260504140921 53 172 3.0 4.0 0.00 0.00 0.00 50 1007.6
20260504140418 52 239 2.0 4.0 0.00 0.00 0.00 51 1007.8
20260504130343 50 171 2.0 6.0 0.00 0.00 0.00 50 1008.3
20260504120306 46 245 0.0 1.0 0.00 0.00 0.00 63 1008.7
20260504110230 39 262 0.0 0.0 0.00 0.00 0.00 82 1008.7
20260504100153 30 269 0.0 0.0 0.00 0.00 0.00 91 1008.7
20260504090116 30 282 0.0 0.0 0.00 0.00 0.00 90 1008.4
20260504081546 32 287 0.0 0.0 0.00 0.00 0.00 89 1008.3
20260504081042 32 265 0.0 0.0 0.00 0.00 0.00 88 1008.4
20260504080539 32 262 0.0 0.0 0.00 0.00 0.00 88 1008.3
20260504050352 35 284 0.0 0.0 0.00 0.00 0.00 78 1007.9
20260504045850 35 284 0.0 0.0 0.00 0.00 0.00 77 1007.9
20260504045350 35 283 0.0 0.0 0.00 0.00 0.00 76 1008.1
20260504044847 36 283 0.0 0.0 0.00 0.00 0.00 75 1008.0
20260504044344 36 283 0.0 0.0 0.00 0.00 0.00 75 1007.8
20260504043841 36 283 0.0 0.0 0.00 0.00 0.00 74 1007.8
20260504043338 37 284 0.0 0.0 0.00 0.00 0.00 74 1007.8
20260504042835 37 284 0.0 0.0 0.00 0.00 0.00 73 1008.0
20260504042332 38 284 0.0 0.0 0.00 0.00 0.00 72 1007.9
20260504041828 38 283 0.0 0.0 0.00 0.00 0.00 70 1007.8
20260504041324 39 283 0.0 0.0 0.00 0.00 0.00 69 1007.9
20260504040821 40 283 0.0 0.0 0.00 0.00 0.00 66 1007.9
20260504040318 40 284 0.0 0.0 0.00 0.00 0.00 64 1007.8
20260504035814 41 283 0.0 0.0 0.00 0.39 0.39 62 1007.9
20260504035312 41 287 0.0 0.0 0.00 0.39 0.39 62 1007.6
20260504034809 41 287 0.0 0.0 0.00 0.39 0.39 60 1007.6
20260504034306 41 287 0.0 0.0 0.00 0.39 0.39 60 1007.7
20260504033803 41 278 0.0 0.0 0.00 0.39 0.39 59 1007.6
20260504033301 41 262 0.0 0.0 0.00 0.39 0.39 58 1007.5
20260504032757 41 284 0.0 0.0 0.00 0.39 0.39 59 1007.5
20260504032254 42 287 0.0 0.0 0.00 0.39 0.39 58 1007.5
20260504031751 42 284 0.0 0.0 0.00 0.39 0.39 58 1007.5
20260504031249 42 262 0.0 1.0 0.00 0.39 0.39 57 1007.4
20260504030744 42 273 0.0 0.0 0.00 0.39 0.39 56 1007.4
20260504030242 42 264 0.0 1.0 0.00 0.39 0.39 55 1007.3
20260504025738 43 287 0.0 1.0 0.00 0.39 0.39 55 1007.2
20260504025235 43 271 0.0 1.0 0.00 0.39 0.39 56 1007.2
20260504024732 43 262 0.0 1.0 0.00 0.39 0.39 55 1007.2
20260504024229 43 267 0.0 1.0 0.00 0.39 0.39 56 1007.0
20260504023726 43 286 0.0 0.0 0.00 0.39 0.39 55 1007.2
20260504023221 43 272 0.0 1.0 0.00 0.39 0.39 55 1007.3
20260504022718 43 268 0.0 1.0 0.00 0.39 0.39 55 1007.3
20260504022214 43 249 0.0 0.0 0.00 0.39 0.39 54 1007.3
20260504021712 43 246 0.0 0.0 0.00 0.39 0.39 55 1007.2
20260504021209 44 262 0.0 0.0 0.00 0.39 0.39 54 1007.2
20260504020705 44 257 0.0 1.0 0.00 0.39 0.39 52 1007.2
20260504020201 45 269 0.0 0.0 0.00 0.39 0.39 51 1007.2
20260504015658 45 261 0.0 1.0 0.00 0.39 0.39 49 1007.2
20260504015154 45 223 0.0 2.0 0.00 0.39 0.39 49 1007.1
20260504014650 45 274 1.0 3.0 0.00 0.39 0.39 49 1007.1
20260504014148 45 257 0.0 3.0 0.00 0.39 0.39 49 1007.1
20260504013645 45 286 0.0 1.0 0.00 0.39 0.39 49 1007.1
20260504013142 46 267 1.0 1.0 0.00 0.39 0.39 47 1006.9
20260504012639 46 249 1.0 1.0 0.00 0.39 0.39 48 1006.8
20260504012137 46 260 1.0 4.0 0.00 0.39 0.39 47 1006.8
20260504011633 46 245 2.0 2.0 0.00 0.39 0.39 46 1006.9
20260504011130 46 270 2.0 4.0 0.00 0.39 0.39 46 1006.7
20260504010626 46 287 3.0 4.0 0.00 0.39 0.39 46 1006.6
20260504010122 47 299 2.0 3.0 0.00 0.39 0.39 45 1006.5
20260504005619 47 275 2.0 3.0 0.00 0.39 0.39 45 1006.6
20260504005116 47 278 2.0 6.0 0.00 0.39 0.39 45 1006.2
20260504004614 47 292 3.0 3.0 0.00 0.39 0.39 45 1006.3
20260504004111 47 283 2.0 3.0 0.00 0.39 0.39 44 1006.1
20260504003607 47 276 1.0 4.0 0.00 0.39 0.39 45 1006.2
20260504003104 47 300 3.0 4.0 0.00 0.39 0.39 44 1006.0
20260504002601 47 288 3.0 3.0 0.00 0.39 0.39 45 1006.1
20260504002058 47 278 1.0 3.0 0.00 0.39 0.39 45 1006.0
20260504001556 47 289 0.0 2.0 0.00 0.39 0.39 46 1005.8
20260504001051 48 277 3.0 4.0 0.00 0.39 0.39 44 1005.9
20260504000549 48 263 1.0 4.0 0.00 0.39 0.39 44 1005.8
20260504000046 48 276 2.0 4.0 0.00 0.39 0.39 44 1005.7
20260503235544 48 284 4.0 8.0 0.00 0.39 0.39 43 1005.7
20260503235041 48 284 0.0 4.0 0.00 0.39 0.39 42 1005.6
20260503234538 48 296 2.0 3.0 0.00 0.39 0.39 43 1005.4
20260503234037 49 318 1.0 4.0 0.00 0.39 0.39 42 1005.4
20260503233533 49 355 2.0 8.0 0.00 0.39 0.39 42 1005.4
20260503233029 49 301 4.0 6.0 0.00 0.39 0.39 42 1005.3
20260503232526 49 302 3.0 6.0 0.00 0.39 0.39 41 1005.1
20260503232024 49 265 3.0 8.0 0.00 0.39 0.39 41 1005.1
20260503231521 49 300 3.0 4.0 0.00 0.39 0.39 42 1004.9
20260503231018 50 279 4.0 8.0 0.00 0.39 0.39 42 1004.9
20260503230514 50 295 2.0 4.0 0.00 0.39 0.39 42 1004.8
20260503230012 50 303 1.0 4.0 0.00 0.39 0.39 44 1004.7
20260503225509 50 345 1.0 2.0 0.00 0.39 0.39 43 1004.7
20260503225004 51 285 2.0 3.0 0.00 0.39 0.39 42 1004.8
20260503224501 51 286 2.0 4.0 0.00 0.39 0.39 42 1004.6
20260503223959 51 273 2.0 3.0 0.00 0.39 0.39 41 1004.5
20260503223457 51 327 2.0 4.0 0.00 0.39 0.39 42 1004.3
20260503222952 51 312 3.0 4.0 0.00 0.39 0.39 42 1004.2
20260503222451 51 335 2.0 8.0 0.00 0.39 0.39 43 1004.2